Time,TemperatureF,DewpointF,PressureIn,WindDirection,WindDirectionDegrees,WindSpeedMPH,WindSpeedGustMPH,Humidity,HourlyPrecipIn,Conditions,Clouds,dailyrainin,SoftwareType,DateUTC
2013-09-22 00:01:00,57.0,42.0,26.79,SW,225,0.0,2.0,58,0.00,,,0.00,Rainwise IP-100,2013-09-22 06:01:00,
2013-09-22 00:06:00,57.0,42.0,26.79,SW,225,0.0,2.0,58,0.00,,,0.00,Rainwise IP-100,2013-09-22 06:06:00,
2013-09-22 00:11:00,57.0,42.0,26.79,SW,225,2.0,4.0,58,0.00,,,0.00,Rainwise IP-100,2013-09-22 06:11:00,
2013-09-22 00:16:00,57.0,42.0,26.80,SW,225,0.0,4.0,58,0.00,,,0.00,Rainwise IP-100,2013-09-22 06:16:00,
2013-09-22 00:21:00,57.0,42.0,26.80,SW,225,0.0,1.0,58,0.00,,,0.00,Rainwise IP-100,2013-09-22 06:21:00,
2013-09-22 00:26:00,57.0,42.0,26.79,East,90,0.0,1.0,58,0.00,,,0.00,Rainwise IP-100,2013-09-22 06:26:00,
2013-09-22 00:31:00,57.0,42.0,26.79,ESE,112,0.0,4.0,58,0.00,,,0.00,Rainwise IP-100,2013-09-22 06:31:00,
2013-09-22 00:36:00,57.0,43.0,26.79,SE,135,2.0,5.0,60,0.00,,,0.00,Rainwise IP-100,2013-09-22 06:36:00,
2013-09-22 00:41:00,57.0,43.0,26.79,SE,135,3.0,3.0,60,0.00,,,0.00,Rainwise IP-100,2013-09-22 06:41:00,
2013-09-22 00:46:00,58.0,44.0,26.80,South,180,4.0,6.0,59,0.00,,,0.00,Rainwise IP-100,2013-09-22 06:46:00,
2013-09-22 00:51:00,58.0,43.0,26.80,SSE,157,3.0,7.0,58,0.00,,,0.00,Rainwise IP-100,2013-09-22 06:51:00,
2013-09-22 00:56:00,58.0,43.0,26.81,West,270,0.0,4.0,58,0.00,,,0.00,Rainwise IP-100,2013-09-22 06:56:00,
2013-09-22 01:01:00,58.0,43.0,26.81,SSW,202,1.0,2.0,58,0.00,,,0.00,Rainwise IP-100,2013-09-22 07:01:00,
2013-09-22 01:06:00,58.0,44.0,26.81,West,270,2.0,5.0,59,0.00,,,0.00,Rainwise IP-100,2013-09-22 07:06:00,
2013-09-22 01:11:00,58.0,43.0,26.81,West,270,0.0,2.0,58,0.00,,,0.00,Rainwise IP-100,2013-09-22 07:11:00,
2013-09-22 01:16:00,57.0,43.0,26.80,West,270,0.0,0.0,59,0.00,,,0.00,Rainwise IP-100,2013-09-22 07:16:00,
2013-09-22 01:21:00,57.0,43.0,26.80,West,270,0.0,0.0,59,0.00,,,0.00,Rainwise IP-100,2013-09-22 07:21:00,
2013-09-22 01:26:00,57.0,44.0,26.81,West,270,0.0,0.0,61,0.00,,,0.00,Rainwise IP-100,2013-09-22 07:26:00,
2013-09-22 01:31:00,57.0,44.0,26.81,West,270,0.0,0.0,61,0.00,,,0.00,Rainwise IP-100,2013-09-22 07:31:00,
2013-09-22 01:36:00,57.0,44.0,26.80,West,270,0.0,0.0,62,0.00,,,0.00,Rainwise IP-100,2013-09-22 07:36:00,
2013-09-22 01:41:00,57.0,45.0,26.80,West,270,0.0,0.0,63,0.00,,,0.00,Rainwise IP-100,2013-09-22 07:41:00,
2013-09-22 01:46:00,56.0,46.0,26.79,West,270,0.0,0.0,68,0.00,,,0.00,Rainwise IP-100,2013-09-22 07:46:00,
2013-09-22 01:51:00,56.0,47.0,26.79,West,270,0.0,0.0,72,0.00,,,0.00,Rainwise IP-100,2013-09-22 07:51:00,
2013-09-22 01:56:00,55.0,46.0,26.79,West,270,0.0,0.0,71,0.00,,,0.00,Rainwise IP-100,2013-09-22 07:56:00,
2013-09-22 02:01:00,55.0,47.0,26.79,West,270,0.0,0.0,74,0.00,,,0.00,Rainwise IP-100,2013-09-22 08:01:00,
2013-09-22 02:06:00,55.0,48.0,26.80,West,270,0.0,0.0,77,0.00,,,0.00,Rainwise IP-100,2013-09-22 08:06:00,
2013-09-22 02:11:00,54.0,47.0,26.80,West,270,0.0,0.0,78,0.00,,,0.00,Rainwise IP-100,2013-09-22 08:11:00,
2013-09-22 02:16:00,54.0,48.0,26.80,West,270,0.0,1.0,81,0.00,,,0.00,Rainwise IP-100,2013-09-22 08:16:00,
2013-09-22 02:21:00,54.0,49.0,26.80,West,270,0.0,0.0,83,0.00,,,0.00,Rainwise IP-100,2013-09-22 08:21:00,
2013-09-22 02:26:00,54.0,48.0,26.80,West,270,0.0,0.0,81,0.00,,,0.00,Rainwise IP-100,2013-09-22 08:26:00,
2013-09-22 02:31:00,54.0,48.0,26.80,West,270,0.0,0.0,82,0.00,,,0.00,Rainwise IP-100,2013-09-22 08:31:00,
2013-09-22 02:36:00,54.0,49.0,26.81,West,270,0.0,0.0,84,0.00,,,0.00,Rainwise IP-100,2013-09-22 08:36:00,
2013-09-22 02:41:00,54.0,49.0,26.81,West,270,0.0,0.0,83,0.00,,,0.00,Rainwise IP-100,2013-09-22 08:41:00,
2013-09-22 02:46:00,54.0,48.0,26.81,West,270,0.0,0.0,82,0.00,,,0.00,Rainwise IP-100,2013-09-22 08:46:00,
2013-09-22 02:51:00,54.0,48.0,26.81,West,270,0.0,0.0,82,0.00,,,0.00,Rainwise IP-100,2013-09-22 08:51:00,
2013-09-22 02:56:00,54.0,48.0,26.81,West,270,0.0,0.0,81,0.00,,,0.00,Rainwise IP-100,2013-09-22 08:56:00,
2013-09-22 03:01:00,54.0,48.0,26.81,ESE,112,1.0,4.0,80,0.00,,,0.00,Rainwise IP-100,2013-09-22 09:01:00,
2013-09-22 03:06:00,54.0,48.0,26.81,ESE,112,1.0,4.0,80,0.00,,,0.00,Rainwise IP-100,2013-09-22 09:06:00,
2013-09-22 03:11:00,54.0,47.0,26.81,East,90,3.0,4.0,79,0.00,,,0.00,Rainwise IP-100,2013-09-22 09:11:00,
2013-09-22 03:16:00,55.0,48.0,26.79,ESE,112,2.0,4.0,78,0.00,,,0.00,Rainwise IP-100,2013-09-22 09:16:00,
2013-09-22 03:21:00,54.0,47.0,26.79,East,90,5.0,5.0,79,0.00,,,0.00,Rainwise IP-100,2013-09-22 09:21:00,
2013-09-22 03:26:00,54.0,47.0,26.79,ESE,112,1.0,5.0,78,0.00,,,0.00,Rainwise IP-100,2013-09-22 09:26:00,
2013-09-22 03:31:00,55.0,48.0,26.79,ESE,112,0.0,5.0,77,0.00,,,0.00,Rainwise IP-100,2013-09-22 09:31:00,
2013-09-22 03:36:00,55.0,47.0,26.79,SE,135,0.0,3.0,76,0.00,,,0.00,Rainwise IP-100,2013-09-22 09:36:00,
2013-09-22 03:41:00,54.0,47.0,26.79,West,270,0.0,3.0,76,0.00,,,0.00,Rainwise IP-100,2013-09-22 09:41:00,
2013-09-22 03:46:00,54.0,47.0,26.79,West,270,0.0,0.0,76,0.00,,,0.00,Rainwise IP-100,2013-09-22 09:46:00,
2013-09-22 03:51:00,54.0,47.0,26.79,West,270,0.0,1.0,78,0.00,,,0.00,Rainwise IP-100,2013-09-22 09:51:00,
2013-09-22 03:56:00,54.0,47.0,26.81,West,270,1.0,2.0,78,0.00,,,0.00,Rainwise IP-100,2013-09-22 09:56:00,
2013-09-22 04:01:00,54.0,47.0,26.81,SW,225,1.0,3.0,79,0.00,,,0.00,Rainwise IP-100,2013-09-22 10:01:00,
2013-09-22 04:06:00,54.0,47.0,26.81,WNW,292,2.0,5.0,78,0.00,,,0.00,Rainwise IP-100,2013-09-22 10:06:00,
2013-09-22 04:11:00,54.0,47.0,26.81,WNW,292,2.0,4.0,77,0.00,,,0.00,Rainwise IP-100,2013-09-22 10:11:00,
2013-09-22 04:16:00,54.0,47.0,26.81,WNW,292,0.0,3.0,78,0.00,,,0.00,Rainwise IP-100,2013-09-22 10:16:00,
2013-09-22 04:21:00,54.0,47.0,26.81,North,360,3.0,5.0,79,0.00,,,0.00,Rainwise IP-100,2013-09-22 10:21:00,
2013-09-22 04:26:00,54.0,48.0,26.79,North,360,2.0,6.0,80,0.00,,,0.00,Rainwise IP-100,2013-09-22 10:26:00,
2013-09-22 04:31:00,54.0,48.0,26.79,North,360,1.0,4.0,82,0.00,,,0.00,Rainwise IP-100,2013-09-22 10:31:00,
2013-09-22 04:36:00,54.0,49.0,26.79,NNE,22,1.0,3.0,84,0.00,,,0.00,Rainwise IP-100,2013-09-22 10:36:00,
2013-09-22 04:41:00,53.0,47.0,26.79,NNE,22,0.0,1.0,83,0.00,,,0.00,Rainwise IP-100,2013-09-22 10:41:00,
2013-09-22 04:46:00,53.0,47.0,26.80,NNE,22,0.0,2.0,83,0.00,,,0.00,Rainwise IP-100,2013-09-22 10:46:00,
2013-09-22 04:51:00,53.0,48.0,26.80,NNE,22,0.0,2.0,85,0.00,,,0.00,Rainwise IP-100,2013-09-22 10:51:00,
2013-09-22 04:56:00,52.0,47.0,26.79,NNE,22,1.0,2.0,85,0.00,,,0.00,Rainwise IP-100,2013-09-22 10:56:00,
2013-09-22 05:01:00,52.0,48.0,26.79,NNE,22,0.0,2.0,87,0.00,,,0.00,Rainwise IP-100,2013-09-22 11:01:00,
2013-09-22 05:06:00,52.0,47.0,26.79,NNE,22,0.0,0.0,85,0.00,,,0.00,Rainwise IP-100,2013-09-22 11:06:00,
2013-09-22 05:11:00,52.0,48.0,26.79,NE,45,0.0,3.0,87,0.00,,,0.00,Rainwise IP-100,2013-09-22 11:11:00,
2013-09-22 05:16:00,52.0,48.0,26.79,ESE,112,1.0,3.0,87,0.00,,,0.00,Rainwise IP-100,2013-09-22 11:16:00,
2013-09-22 05:21:00,52.0,48.0,26.79,SE,135,2.0,3.0,88,0.00,,,0.00,Rainwise IP-100,2013-09-22 11:21:00,
2013-09-22 05:26:00,52.0,48.0,26.79,SSE,157,4.0,5.0,88,0.00,,,0.00,Rainwise IP-100,2013-09-22 11:26:00,
2013-09-22 05:31:00,52.0,48.0,26.79,SSE,157,0.0,4.0,88,0.00,,,0.00,Rainwise IP-100,2013-09-22 11:31:00,
2013-09-22 05:36:00,52.0,48.0,26.80,East,90,0.0,2.0,88,0.00,,,0.00,Rainwise IP-100,2013-09-22 11:36:00,
2013-09-22 05:41:00,52.0,48.0,26.80,East,90,0.0,0.0,87,0.00,,,0.00,Rainwise IP-100,2013-09-22 11:41:00,
2013-09-22 05:46:00,51.0,47.0,26.80,East,90,0.0,0.0,88,0.00,,,0.00,Rainwise IP-100,2013-09-22 11:46:00,
2013-09-22 05:51:00,51.0,47.0,26.80,East,90,0.0,0.0,88,0.00,,,0.00,Rainwise IP-100,2013-09-22 11:51:00,
2013-09-22 05:56:00,51.0,49.0,26.81,East,90,0.0,2.0,91,0.00,,,0.00,Rainwise IP-100,2013-09-22 11:56:00,
2013-09-22 06:01:00,51.0,48.0,26.81,East,90,1.0,6.0,90,0.00,,,0.00,Rainwise IP-100,2013-09-22 12:01:00,
2013-09-22 06:06:00,51.0,48.0,26.81,ESE,112,0.0,2.0,90,0.00,,,0.00,Rainwise IP-100,2013-09-22 12:06:00,
2013-09-22 06:11:00,51.0,48.0,26.81,ESE,112,2.0,3.0,90,0.00,,,0.00,Rainwise IP-100,2013-09-22 12:11:00,
2013-09-22 06:16:00,51.0,47.0,26.81,East,90,0.0,3.0,88,0.00,,,0.00,Rainwise IP-100,2013-09-22 12:16:00,
2013-09-22 06:21:00,51.0,47.0,26.81,East,90,0.0,0.0,88,0.00,,,0.00,Rainwise IP-100,2013-09-22 12:21:00,
2013-09-22 06:26:00,51.0,48.0,26.82,East,90,0.0,0.0,90,0.00,,,0.00,Rainwise IP-100,2013-09-22 12:26:00,
2013-09-22 06:31:00,51.0,48.0,26.82,ENE,67,0.0,0.0,89,0.00,,,0.00,Rainwise IP-100,2013-09-22 12:31:00,
2013-09-22 06:36:00,51.0,49.0,26.81,ENE,67,1.0,2.0,92,0.00,,,0.00,Rainwise IP-100,2013-09-22 12:36:00,
2013-09-22 06:41:00,51.0,49.0,26.81,East,90,1.0,6.0,92,0.00,,,0.00,Rainwise IP-100,2013-09-22 12:41:00,
2013-09-22 06:46:00,51.0,49.0,26.81,ENE,67,6.0,6.0,91,0.00,,,0.00,Rainwise IP-100,2013-09-22 12:46:00,
2013-09-22 06:51:00,51.0,49.0,26.81,ESE,112,3.0,6.0,92,0.00,,,0.00,Rainwise IP-100,2013-09-22 12:51:00,
2013-09-22 06:56:00,51.0,49.0,26.82,ESE,112,5.0,6.0,91,0.00,,,0.00,Rainwise IP-100,2013-09-22 12:56:00,
2013-09-22 07:01:00,51.0,48.0,26.82,East,90,2.0,6.0,90,0.00,,,0.00,Rainwise IP-100,2013-09-22 13:01:00,
2013-09-22 07:06:00,51.0,48.0,26.82,ENE,67,3.0,7.0,90,0.00,,,0.00,Rainwise IP-100,2013-09-22 13:06:00,
2013-09-22 07:11:00,51.0,48.0,26.82,ESE,112,3.0,6.0,90,0.00,,,0.00,Rainwise IP-100,2013-09-22 13:11:00,
2013-09-22 07:16:00,51.0,48.0,26.82,ENE,67,4.0,5.0,90,0.00,,,0.00,Rainwise IP-100,2013-09-22 13:16:00,
2013-09-22 07:21:00,51.0,48.0,26.82,ENE,67,3.0,6.0,90,0.00,,,0.00,Rainwise IP-100,2013-09-22 13:21:00,
2013-09-22 07:26:00,51.0,49.0,26.82,East,90,2.0,6.0,91,0.00,,,0.00,Rainwise IP-100,2013-09-22 13:26:00,
2013-09-22 07:31:00,51.0,49.0,26.82,ESE,112,2.0,5.0,91,0.00,,,0.00,Rainwise IP-100,2013-09-22 13:31:00,
2013-09-22 07:36:00,51.0,49.0,26.82,ENE,67,2.0,6.0,91,0.00,,,0.00,Rainwise IP-100,2013-09-22 13:36:00,
2013-09-22 07:41:00,51.0,49.0,26.82,ENE,67,2.0,7.0,91,0.00,,,0.00,Rainwise IP-100,2013-09-22 13:41:00,
2013-09-22 07:46:00,51.0,48.0,26.82,ENE,67,2.0,7.0,90,0.00,,,0.00,Rainwise IP-100,2013-09-22 13:46:00,
2013-09-22 07:51:00,51.0,48.0,26.82,East,90,0.0,4.0,90,0.00,,,0.00,Rainwise IP-100,2013-09-22 13:51:00,
2013-09-22 07:56:00,51.0,48.0,26.82,East,90,0.0,6.0,89,0.00,,,0.00,Rainwise IP-100,2013-09-22 13:56:00,
2013-09-22 08:01:00,51.0,47.0,26.82,East,90,0.0,0.0,88,0.00,,,0.00,Rainwise IP-100,2013-09-22 14:01:00,
2013-09-22 08:06:00,51.0,47.0,26.82,NNE,22,3.0,4.0,87,0.00,,,0.00,Rainwise IP-100,2013-09-22 14:06:00,
2013-09-22 08:11:00,51.0,47.0,26.82,ENE,67,1.0,3.0,87,0.00,,,0.00,Rainwise IP-100,2013-09-22 14:11:00,
2013-09-22 08:16:00,51.0,47.0,26.83,ESE,112,0.0,4.0,87,0.00,,,0.00,Rainwise IP-100,2013-09-22 14:16:00,
2013-09-22 08:21:00,51.0,47.0,26.83,East,90,3.0,3.0,87,0.00,,,0.00,Rainwise IP-100,2013-09-22 14:21:00,
2013-09-22 08:26:00,51.0,47.0,26.83,ENE,67,3.0,5.0,88,0.00,,,0.00,Rainwise IP-100,2013-09-22 14:26:00,
2013-09-22 08:31:00,51.0,47.0,26.83,NE,45,1.0,6.0,88,0.00,,,0.00,Rainwise IP-100,2013-09-22 14:31:00,
2013-09-22 08:36:00,52.0,49.0,26.82,East,90,1.0,4.0,89,0.00,,,0.00,Rainwise IP-100,2013-09-22 14:36:00,
2013-09-22 08:41:00,52.0,49.0,26.82,ENE,67,1.0,4.0,89,0.00,,,0.00,Rainwise IP-100,2013-09-22 14:41:00,
2013-09-22 08:46:00,52.0,48.0,26.83,ENE,67,0.0,3.0,88,0.00,,,0.00,Rainwise IP-100,2013-09-22 14:46:00,
2013-09-22 08:51:00,52.0,48.0,26.83,ENE,67,0.0,2.0,88,0.00,,,0.00,Rainwise IP-100,2013-09-22 14:51:00,
2013-09-22 08:56:00,52.0,48.0,26.83,ENE,67,0.0,0.0,87,0.00,,,0.00,Rainwise IP-100,2013-09-22 14:56:00,
2013-09-22 09:01:00,52.0,48.0,26.83,ENE,67,0.0,2.0,88,0.00,,,0.00,Rainwise IP-100,2013-09-22 15:01:00,
2013-09-22 09:06:00,52.0,48.0,26.83,ENE,67,0.0,1.0,87,0.00,,,0.00,Rainwise IP-100,2013-09-22 15:06:00,
2013-09-22 09:11:00,52.0,48.0,26.83,ENE,67,0.0,0.0,87,0.00,,,0.00,Rainwise IP-100,2013-09-22 15:11:00,
2013-09-22 09:16:00,52.0,48.0,26.84,ENE,67,2.0,0.0,87,0.00,,,0.00,Rainwise IP-100,2013-09-22 15:16:00,
2013-09-22 09:21:00,52.0,48.0,26.84,ENE,67,2.0,4.0,87,0.00,,,0.00,Rainwise IP-100,2013-09-22 15:21:00,
2013-09-22 09:26:00,52.0,48.0,26.84,ENE,67,1.0,4.0,87,0.00,,,0.00,Rainwise IP-100,2013-09-22 15:26:00,
2013-09-22 09:31:00,52.0,48.0,26.84,ENE,67,3.0,4.0,87,0.00,,,0.00,Rainwise IP-100,2013-09-22 15:31:00,
2013-09-22 09:36:00,53.0,49.0,26.84,SSE,157,0.0,4.0,87,0.00,,,0.00,Rainwise IP-100,2013-09-22 15:36:00,
2013-09-22 09:41:00,53.0,48.0,26.84,SSE,157,0.0,0.0,86,0.00,,,0.00,Rainwise IP-100,2013-09-22 15:41:00,
2013-09-22 09:46:00,53.0,48.0,26.85,SSE,157,0.0,0.0,85,0.00,,,0.00,Rainwise IP-100,2013-09-22 15:46:00,
2013-09-22 09:51:00,53.0,48.0,26.85,WSW,247,0.0,1.0,85,0.00,,,0.00,Rainwise IP-100,2013-09-22 15:51:00,
2013-09-22 09:55:00,54.0,49.0,26.85,South,180,2.0,4.0,84,0.00,,,0.00,Rainwise IP-100,2013-09-22 15:55:00,
2013-09-22 10:00:00,54.0,49.0,26.85,South,180,2.0,4.0,84,0.00,,,0.00,Rainwise IP-100,2013-09-22 16:00:00,
2013-09-22 10:05:00,54.0,49.0,26.85,SSW,202,3.0,4.0,83,0.00,,,0.00,Rainwise IP-100,2013-09-22 16:05:00,
2013-09-22 10:10:00,54.0,48.0,26.85,SSE,157,6.0,6.0,80,0.00,,,0.00,Rainwise IP-100,2013-09-22 16:10:00,
2013-09-22 10:15:00,55.0,49.0,26.84,SE,135,1.0,6.0,79,0.00,,,0.00,Rainwise IP-100,2013-09-22 16:15:00,
2013-09-22 10:20:00,55.0,49.0,26.84,SSW,202,1.0,4.0,79,0.00,,,0.00,Rainwise IP-100,2013-09-22 16:20:00,
2013-09-22 10:25:00,55.0,48.0,26.85,SSE,157,3.0,6.0,78,0.00,,,0.00,Rainwise IP-100,2013-09-22 16:25:00,
2013-09-22 10:30:00,55.0,48.0,26.85,WSW,247,1.0,4.0,78,0.00,,,0.00,Rainwise IP-100,2013-09-22 16:30:00,
2013-09-22 10:35:00,56.0,48.0,26.85,WSW,247,1.0,2.0,76,0.00,,,0.00,Rainwise IP-100,2013-09-22 16:35:00,
2013-09-22 10:40:00,56.0,48.0,26.85,WSW,247,0.0,1.0,76,0.00,,,0.00,Rainwise IP-100,2013-09-22 16:40:00,
2013-09-22 10:45:00,56.0,47.0,26.85,SSE,157,2.0,5.0,74,0.00,,,0.00,Rainwise IP-100,2013-09-22 16:45:00,
2013-09-22 10:50:00,56.0,47.0,26.85,SW,225,0.0,5.0,74,0.00,,,0.00,Rainwise IP-100,2013-09-22 16:50:00,
2013-09-22 10:55:00,57.0,47.0,26.84,SSE,157,3.0,6.0,71,0.00,,,0.00,Rainwise IP-100,2013-09-22 16:55:00,
2013-09-22 11:00:00,57.0,48.0,26.84,SSW,202,1.0,4.0,73,0.00,,,0.00,Rainwise IP-100,2013-09-22 17:00:00,
2013-09-22 11:05:00,57.0,47.0,26.85,SE,135,3.0,5.0,71,0.00,,,0.00,Rainwise IP-100,2013-09-22 17:05:00,
2013-09-22 11:10:00,57.0,48.0,26.85,SW,225,3.0,5.0,72,0.00,,,0.00,Rainwise IP-100,2013-09-22 17:10:00,
2013-09-22 11:15:00,58.0,49.0,26.85,South,180,0.0,7.0,71,0.00,,,0.00,Rainwise IP-100,2013-09-22 17:15:00,
2013-09-22 11:20:00,58.0,48.0,26.85,South,180,5.0,7.0,69,0.00,,,0.00,Rainwise IP-100,2013-09-22 17:20:00,
2013-09-22 11:25:00,58.0,48.0,26.86,South,180,2.0,7.0,69,0.00,,,0.00,Rainwise IP-100,2013-09-22 17:25:00,
2013-09-22 11:30:00,58.0,49.0,26.86,SSE,157,5.0,6.0,71,0.00,,,0.00,Rainwise IP-100,2013-09-22 17:30:00,
2013-09-22 11:35:00,57.0,47.0,26.86,SSE,157,4.0,9.0,71,0.00,,,0.00,Rainwise IP-100,2013-09-22 17:35:00,
2013-09-22 11:40:00,58.0,48.0,26.86,SSW,202,2.0,7.0,70,0.00,,,0.00,Rainwise IP-100,2013-09-22 17:40:00,
2013-09-22 11:45:00,58.0,48.0,26.85,South,180,6.0,8.0,69,0.00,,,0.00,Rainwise IP-100,2013-09-22 17:45:00,
2013-09-22 11:50:00,59.0,48.0,26.85,SW,225,1.0,9.0,68,0.00,,,0.00,Rainwise IP-100,2013-09-22 17:50:00,
2013-09-22 11:55:00,59.0,47.0,26.85,SSE,157,6.0,7.0,64,0.00,,,0.00,Rainwise IP-100,2013-09-22 17:55:00,
2013-09-22 12:00:00,59.0,47.0,26.85,SSW,202,1.0,6.0,64,0.00,,,0.00,Rainwise IP-100,2013-09-22 18:00:00,
2013-09-22 12:05:00,60.0,47.0,26.85,SSW,202,3.0,7.0,61,0.00,,,0.00,Rainwise IP-100,2013-09-22 18:05:00,
2013-09-22 12:10:00,60.0,46.0,26.85,SW,225,0.0,6.0,60,0.00,,,0.00,Rainwise IP-100,2013-09-22 18:10:00,
2013-09-22 12:15:00,61.0,47.0,26.86,West,270,3.0,3.0,59,0.00,,,0.00,Rainwise IP-100,2013-09-22 18:15:00,
2013-09-22 12:20:00,62.0,46.0,26.86,SW,225,1.0,6.0,55,0.00,,,0.00,Rainwise IP-100,2013-09-22 18:20:00,
2013-09-22 12:25:00,61.0,45.0,26.86,WSW,247,3.0,7.0,55,0.00,,,0.00,Rainwise IP-100,2013-09-22 18:25:00,
2013-09-22 12:30:00,61.0,43.0,26.86,South,180,2.0,6.0,52,0.00,,,0.00,Rainwise IP-100,2013-09-22 18:30:00,
2013-09-22 12:35:00,61.0,44.0,26.86,SE,135,3.0,7.0,53,0.00,,,0.00,Rainwise IP-100,2013-09-22 18:35:00,
2013-09-22 12:40:00,62.0,45.0,26.86,East,90,0.0,5.0,53,0.00,,,0.00,Rainwise IP-100,2013-09-22 18:40:00,
2013-09-22 12:45:00,62.0,45.0,26.85,SE,135,2.0,6.0,53,0.00,,,0.00,Rainwise IP-100,2013-09-22 18:45:00,
2013-09-22 12:50:00,62.0,45.0,26.85,WSW,247,1.0,5.0,53,0.00,,,0.00,Rainwise IP-100,2013-09-22 18:50:00,
2013-09-22 12:55:00,63.0,46.0,26.85,ESE,112,2.0,6.0,54,0.00,,,0.00,Rainwise IP-100,2013-09-22 18:55:00,
2013-09-22 13:00:00,63.0,46.0,26.85,SSW,202,3.0,9.0,54,0.00,,,0.00,Rainwise IP-100,2013-09-22 19:00:00,
2013-09-22 13:05:00,63.0,45.0,26.86,SE,135,4.0,8.0,52,0.00,,,0.00,Rainwise IP-100,2013-09-22 19:05:00,
2013-09-22 13:10:00,63.0,45.0,26.86,West,270,0.0,6.0,52,0.00,,,0.00,Rainwise IP-100,2013-09-22 19:10:00,
2013-09-22 13:15:00,63.0,45.0,26.85,WSW,247,3.0,6.0,52,0.00,,,0.00,Rainwise IP-100,2013-09-22 19:15:00,
2013-09-22 13:20:00,63.0,45.0,26.85,WNW,292,6.0,6.0,52,0.00,,,0.00,Rainwise IP-100,2013-09-22 19:20:00,
2013-09-22 13:25:00,62.0,46.0,26.86,WNW,292,5.0,8.0,55,0.00,,,0.00,Rainwise IP-100,2013-09-22 19:25:00,
2013-09-22 13:30:00,62.0,47.0,26.86,WSW,247,2.0,7.0,57,0.00,,,0.00,Rainwise IP-100,2013-09-22 19:30:00,
2013-09-22 13:35:00,62.0,47.0,26.85,WSW,247,3.0,6.0,59,0.00,,,0.00,Rainwise IP-100,2013-09-22 19:35:00,
2013-09-22 13:40:00,61.0,47.0,26.85,WSW,247,4.0,6.0,59,0.00,,,0.00,Rainwise IP-100,2013-09-22 19:40:00,
2013-09-22 13:45:00,61.0,47.0,26.85,SW,225,4.0,9.0,60,0.00,,,0.00,Rainwise IP-100,2013-09-22 19:45:00,
2013-09-22 13:50:00,61.0,47.0,26.85,West,270,1.0,9.0,61,0.00,,,0.00,Rainwise IP-100,2013-09-22 19:50:00,
2013-09-22 13:55:00,61.0,47.0,26.84,South,180,2.0,7.0,59,0.00,,,0.00,Rainwise IP-100,2013-09-22 19:55:00,
2013-09-22 14:00:00,60.0,47.0,26.84,WNW,292,5.0,8.0,62,0.00,,,0.00,Rainwise IP-100,2013-09-22 20:00:00,
2013-09-22 14:05:00,59.0,47.0,26.85,NNW,337,7.0,10.0,63,0.00,,,0.00,Rainwise IP-100,2013-09-22 20:05:00,
2013-09-22 14:10:00,58.0,49.0,26.85,WNW,292,3.0,8.0,71,0.00,,,0.00,Rainwise IP-100,2013-09-22 20:10:00,
2013-09-22 14:15:00,57.0,48.0,26.85,WSW,247,0.0,10.0,72,0.00,,,0.00,Rainwise IP-100,2013-09-22 20:15:00,
2013-09-22 14:20:00,57.0,49.0,26.85,WNW,292,1.0,6.0,74,0.06,,,0.01,Rainwise IP-100,2013-09-22 20:20:00,
2013-09-22 14:25:00,57.0,47.0,26.84,SE,135,7.0,10.0,71,0.06,,,0.01,Rainwise IP-100,2013-09-22 20:25:00,
2013-09-22 14:30:00,56.0,47.0,26.84,SSE,157,6.0,9.0,74,0.00,,,0.01,Rainwise IP-100,2013-09-22 20:30:00,
2013-09-22 14:35:00,56.0,48.0,26.84,SSW,202,4.0,12.0,76,0.00,,,0.01,Rainwise IP-100,2013-09-22 20:35:00,
2013-09-22 14:40:00,56.0,48.0,26.84,SSE,157,6.0,12.0,75,0.00,,,0.01,Rainwise IP-100,2013-09-22 20:40:00,
2013-09-22 14:45:00,56.0,47.0,26.83,SSE,157,4.0,10.0,74,0.00,,,0.01,Rainwise IP-100,2013-09-22 20:45:00,
2013-09-22 14:50:00,56.0,48.0,26.83,SSE,157,3.0,9.0,76,0.00,,,0.01,Rainwise IP-100,2013-09-22 20:50:00,
2013-09-22 14:55:00,57.0,47.0,26.82,SSE,157,6.0,7.0,68,0.00,,,0.01,Rainwise IP-100,2013-09-22 20:55:00,
2013-09-22 15:00:00,57.0,47.0,26.82,SSW,202,4.0,8.0,68,0.00,,,0.01,Rainwise IP-100,2013-09-22 21:00:00,
2013-09-22 15:05:00,58.0,47.0,26.82,SSE,157,6.0,9.0,67,0.00,,,0.01,Rainwise IP-100,2013-09-22 21:05:00,
2013-09-22 15:10:00,59.0,47.0,26.82,SE,135,1.0,7.0,66,0.00,,,0.01,Rainwise IP-100,2013-09-22 21:10:00,
2013-09-22 15:15:00,59.0,43.0,26.83,SSW,202,6.0,8.0,56,0.00,,,0.01,Rainwise IP-100,2013-09-22 21:15:00,
2013-09-22 15:20:00,59.0,44.0,26.83,SSE,157,6.0,7.0,58,0.00,,,0.01,Rainwise IP-100,2013-09-22 21:20:00,
2013-09-22 15:25:00,59.0,45.0,26.83,SSW,202,4.0,7.0,59,0.00,,,0.01,Rainwise IP-100,2013-09-22 21:25:00,
2013-09-22 15:30:00,59.0,45.0,26.83,SW,225,2.0,6.0,59,0.00,,,0.01,Rainwise IP-100,2013-09-22 21:30:00,
2013-09-22 15:35:00,59.0,44.0,26.83,SE,135,1.0,5.0,58,0.00,,,0.01,Rainwise IP-100,2013-09-22 21:35:00,
2013-09-22 15:40:00,59.0,44.0,26.83,SSE,157,1.0,7.0,58,0.00,,,0.01,Rainwise IP-100,2013-09-22 21:40:00,
2013-09-22 15:45:00,60.0,45.0,26.83,SSE,157,4.0,5.0,57,0.00,,,0.01,Rainwise IP-100,2013-09-22 21:45:00,
2013-09-22 15:50:00,60.0,46.0,26.83,WSW,247,2.0,5.0,60,0.00,,,0.01,Rainwise IP-100,2013-09-22 21:50:00,
2013-09-22 15:55:00,60.0,46.0,26.83,SSW,202,2.0,6.0,60,0.00,,,0.01,Rainwise IP-100,2013-09-22 21:55:00,
2013-09-22 16:00:00,59.0,46.0,26.83,SW,225,2.0,7.0,61,0.00,,,0.01,Rainwise IP-100,2013-09-22 22:00:00,
2013-09-22 16:05:00,59.0,47.0,26.84,SSW,202,1.0,7.0,63,0.00,,,0.01,Rainwise IP-100,2013-09-22 22:05:00,
2013-09-22 16:10:00,58.0,48.0,26.84,SW,225,1.0,8.0,70,0.06,,,0.02,Rainwise IP-100,2013-09-22 22:10:00,
2013-09-22 16:15:00,56.0,47.0,26.84,West,270,4.0,6.0,71,0.06,,,0.02,Rainwise IP-100,2013-09-22 22:15:00,
2013-09-22 16:20:00,56.0,47.0,26.84,WNW,292,3.0,7.0,73,0.00,,,0.02,Rainwise IP-100,2013-09-22 22:20:00,
2013-09-22 16:25:00,55.0,47.0,26.83,WNW,292,0.0,5.0,74,0.00,,,0.02,Rainwise IP-100,2013-09-22 22:25:00,
2013-09-22 16:30:00,55.0,46.0,26.83,WNW,292,1.0,6.0,70,0.00,,,0.02,Rainwise IP-100,2013-09-22 22:30:00,
2013-09-22 16:35:00,55.0,47.0,26.84,West,270,0.0,7.0,74,0.00,,,0.02,Rainwise IP-100,2013-09-22 22:35:00,
2013-09-22 16:40:00,55.0,47.0,26.84,West,270,0.0,0.0,76,0.06,,,0.03,Rainwise IP-100,2013-09-22 22:40:00,
2013-09-22 16:45:00,55.0,48.0,26.84,West,270,0.0,0.0,77,0.06,,,0.03,Rainwise IP-100,2013-09-22 22:45:00,
2013-09-22 16:50:00,54.0,48.0,26.84,SSW,202,3.0,3.0,81,0.06,,,0.04,Rainwise IP-100,2013-09-22 22:50:00,
2013-09-22 16:55:00,54.0,48.0,26.85,SSW,202,0.0,3.0,82,0.06,,,0.04,Rainwise IP-100,2013-09-22 22:55:00,
2013-09-22 17:00:00,54.0,50.0,26.85,South,180,6.0,6.0,86,0.00,,,0.04,Rainwise IP-100,2013-09-22 23:00:00,
2013-09-22 17:05:00,54.0,49.0,26.85,SSE,157,3.0,6.0,84,0.00,,,0.04,Rainwise IP-100,2013-09-22 23:05:00,
2013-09-22 17:10:00,54.0,50.0,26.85,South,180,0.0,4.0,88,0.00,,,0.04,Rainwise IP-100,2013-09-22 23:10:00,
2013-09-22 17:15:00,54.0,50.0,26.85,ESE,112,2.0,3.0,89,0.00,,,0.04,Rainwise IP-100,2013-09-22 23:15:00,
2013-09-22 17:20:00,54.0,51.0,26.85,SSE,157,3.0,5.0,90,0.00,,,0.04,Rainwise IP-100,2013-09-22 23:20:00,
2013-09-22 17:25:00,54.0,50.0,26.85,SSE,157,2.0,6.0,89,0.00,,,0.04,Rainwise IP-100,2013-09-22 23:25:00,
2013-09-22 17:30:00,54.0,50.0,26.85,SSE,157,3.0,6.0,89,0.00,,,0.04,Rainwise IP-100,2013-09-22 23:30:00,
2013-09-22 17:35:00,54.0,50.0,26.85,SSE,157,3.0,6.0,89,0.00,,,0.04,Rainwise IP-100,2013-09-22 23:35:00,
2013-09-22 17:40:00,54.0,50.0,26.85,SE,135,2.0,6.0,88,0.00,,,0.04,Rainwise IP-100,2013-09-22 23:40:00,
2013-09-22 17:45:00,54.0,50.0,26.85,South,180,3.0,6.0,89,0.00,,,0.04,Rainwise IP-100,2013-09-22 23:45:00,
2013-09-22 17:50:00,53.0,49.0,26.85,SW,225,0.0,4.0,88,0.00,,,0.04,Rainwise IP-100,2013-09-22 23:50:00,
2013-09-22 17:55:00,53.0,49.0,26.85,SW,225,0.0,0.0,88,0.00,,,0.04,Rainwise IP-100,2013-09-22 23:55:00,
2013-09-22 18:00:00,53.0,48.0,26.85,East,90,0.0,6.0,86,0.00,,,0.04,Rainwise IP-100,2013-09-23 00:00:00,
2013-09-22 18:05:00,54.0,50.0,26.85,SE,135,0.0,3.0,86,0.00,,,0.04,Rainwise IP-100,2013-09-23 00:05:00,
2013-09-22 18:10:00,53.0,48.0,26.85,WSW,247,0.0,3.0,84,0.00,,,0.04,Rainwise IP-100,2013-09-23 00:10:00,
2013-09-22 18:15:00,54.0,49.0,26.85,WSW,247,0.0,1.0,84,0.00,,,0.04,Rainwise IP-100,2013-09-23 00:15:00,
2013-09-22 18:20:00,53.0,48.0,26.85,WSW,247,0.0,0.0,85,0.00,,,0.04,Rainwise IP-100,2013-09-23 00:20:00,
2013-09-22 18:25:00,54.0,50.0,26.86,WSW,247,0.0,0.0,86,0.00,,,0.04,Rainwise IP-100,2013-09-23 00:25:00,
2013-09-22 18:30:00,53.0,49.0,26.86,WSW,247,0.0,0.0,87,0.00,,,0.04,Rainwise IP-100,2013-09-23 00:30:00,
2013-09-22 18:35:00,53.0,47.0,26.87,SSE,157,2.0,7.0,83,0.00,,,0.04,Rainwise IP-100,2013-09-23 00:35:00,
2013-09-22 18:40:00,53.0,46.0,26.87,ESE,112,1.0,5.0,77,0.00,,,0.04,Rainwise IP-100,2013-09-23 00:40:00,
2013-09-22 18:45:00,54.0,47.0,26.87,WSW,247,4.0,7.0,76,0.00,,,0.04,Rainwise IP-100,2013-09-23 00:45:00,
2013-09-22 18:50:00,54.0,45.0,26.87,SSW,202,4.0,6.0,72,0.00,,,0.04,Rainwise IP-100,2013-09-23 00:50:00,
2013-09-22 18:55:00,54.0,46.0,26.87,SE,135,4.0,5.0,74,0.00,,,0.04,Rainwise IP-100,2013-09-23 00:55:00,
2013-09-22 19:00:00,54.0,46.0,26.87,SSW,202,2.0,5.0,74,0.00,,,0.04,Rainwise IP-100,2013-09-23 01:00:00,
2013-09-22 19:05:00,54.0,47.0,26.88,South,180,4.0,4.0,75,0.00,,,0.04,Rainwise IP-100,2013-09-23 01:05:00,
2013-09-22 19:10:00,54.0,47.0,26.88,SSE,157,3.0,6.0,75,0.00,,,0.04,Rainwise IP-100,2013-09-23 01:10:00,
2013-09-22 19:15:00,54.0,45.0,26.87,South,180,4.0,6.0,72,0.00,,,0.04,Rainwise IP-100,2013-09-23 01:15:00,
2013-09-22 19:20:00,54.0,45.0,26.87,SSW,202,3.0,7.0,71,0.00,,,0.04,Rainwise IP-100,2013-09-23 01:20:00,
2013-09-22 19:25:00,54.0,45.0,26.87,SSE,157,2.0,6.0,71,0.00,,,0.04,Rainwise IP-100,2013-09-23 01:25:00,
2013-09-22 19:30:00,54.0,45.0,26.87,SSE,157,3.0,4.0,72,0.00,,,0.04,Rainwise IP-100,2013-09-23 01:30:00,
2013-09-22 19:35:00,54.0,46.0,26.87,SSE,157,2.0,5.0,73,0.00,,,0.04,Rainwise IP-100,2013-09-23 01:35:00,
2013-09-22 19:40:00,53.0,44.0,26.87,South,180,2.0,5.0,72,0.00,,,0.04,Rainwise IP-100,2013-09-23 01:40:00,
2013-09-22 19:45:00,53.0,44.0,26.88,SSW,202,0.0,5.0,72,0.00,,,0.04,Rainwise IP-100,2013-09-23 01:45:00,
2013-09-22 19:50:00,53.0,44.0,26.88,SSE,157,2.0,3.0,73,0.00,,,0.04,Rainwise IP-100,2013-09-23 01:50:00,
2013-09-22 19:55:00,53.0,44.0,26.87,SSE,157,0.0,3.0,73,0.00,,,0.04,Rainwise IP-100,2013-09-23 01:55:00,
2013-09-22 20:00:00,52.0,44.0,26.87,SSW,202,0.0,3.0,75,0.00,,,0.04,Rainwise IP-100,2013-09-23 02:00:00,
2013-09-22 20:05:00,52.0,44.0,26.88,SSW,202,0.0,0.0,75,0.00,,,0.04,Rainwise IP-100,2013-09-23 02:05:00,
2013-09-22 20:10:00,52.0,45.0,26.88,South,180,0.0,3.0,77,0.00,,,0.04,Rainwise IP-100,2013-09-23 02:10:00,
2013-09-22 20:15:00,52.0,45.0,26.87,South,180,0.0,1.0,76,0.00,,,0.04,Rainwise IP-100,2013-09-23 02:15:00,
2013-09-22 20:20:00,51.0,44.0,26.87,South,180,2.0,3.0,77,0.00,,,0.04,Rainwise IP-100,2013-09-23 02:20:00,
2013-09-22 20:25:00,51.0,44.0,26.88,South,180,1.0,3.0,77,0.00,,,0.04,Rainwise IP-100,2013-09-23 02:25:00,
2013-09-22 20:30:00,51.0,45.0,26.88,South,180,2.0,2.0,78,0.00,,,0.04,Rainwise IP-100,2013-09-23 02:30:00,
2013-09-22 20:35:00,51.0,44.0,26.88,South,180,0.0,3.0,77,0.00,,,0.04,Rainwise IP-100,2013-09-23 02:35:00,
2013-09-22 20:40:00,50.0,44.0,26.88,South,180,0.0,0.0,80,0.00,,,0.04,Rainwise IP-100,2013-09-23 02:40:00,
2013-09-22 20:45:00,50.0,43.0,26.88,SE,135,1.0,4.0,78,0.00,,,0.04,Rainwise IP-100,2013-09-23 02:45:00,
2013-09-22 20:50:00,50.0,43.0,26.88,SE,135,0.0,1.0,79,0.00,,,0.04,Rainwise IP-100,2013-09-23 02:50:00,
2013-09-22 20:55:00,49.0,43.0,26.88,SE,135,0.0,0.0,81,0.00,,,0.04,Rainwise IP-100,2013-09-23 02:55:00,
2013-09-22 21:00:00,49.0,45.0,26.88,NE,45,1.0,3.0,85,0.00,,,0.04,Rainwise IP-100,2013-09-23 03:00:00,
2013-09-22 21:05:00,49.0,44.0,26.88,NE,45,0.0,2.0,83,0.00,,,0.04,Rainwise IP-100,2013-09-23 03:05:00,
2013-09-22 21:10:00,49.0,45.0,26.88,NE,45,0.0,1.0,85,0.00,,,0.04,Rainwise IP-100,2013-09-23 03:10:00,
2013-09-22 21:15:00,49.0,45.0,26.88,ESE,112,0.0,3.0,87,0.00,,,0.04,Rainwise IP-100,2013-09-23 03:15:00,
2013-09-22 21:20:00,49.0,45.0,26.88,East,90,2.0,3.0,87,0.00,,,0.04,Rainwise IP-100,2013-09-23 03:20:00,
2013-09-22 21:25:00,49.0,45.0,26.88,North,360,0.0,3.0,85,0.00,,,0.04,Rainwise IP-100,2013-09-23 03:25:00,
2013-09-22 21:30:00,50.0,46.0,26.88,ENE,67,2.0,6.0,85,0.00,,,0.04,Rainwise IP-100,2013-09-23 03:30:00,
2013-09-22 21:35:00,50.0,45.0,26.87,North,360,3.0,4.0,83,0.00,,,0.04,Rainwise IP-100,2013-09-23 03:35:00,
2013-09-22 21:40:00,50.0,45.0,26.87,NNE,22,0.0,5.0,84,0.00,,,0.04,Rainwise IP-100,2013-09-23 03:40:00,
2013-09-22 21:45:00,50.0,45.0,26.88,SSE,157,6.0,6.0,84,0.00,,,0.04,Rainwise IP-100,2013-09-23 03:45:00,
2013-09-22 21:50:00,51.0,47.0,26.88,East,90,1.0,7.0,83,0.00,,,0.04,Rainwise IP-100,2013-09-23 03:50:00,
2013-09-22 21:55:00,51.0,46.0,26.88,ENE,67,3.0,6.0,82,0.00,,,0.04,Rainwise IP-100,2013-09-23 03:55:00,
2013-09-22 22:00:00,50.0,45.0,26.88,ESE,112,2.0,7.0,82,0.00,,,0.04,Rainwise IP-100,2013-09-23 04:00:00,
2013-09-22 22:01:00,50.0,44.0,26.88,ENE,67,4.0,7.0,81,0.00,,,0.04,Rainwise IP-100,2013-09-23 04:01:00,
2013-09-22 22:02:00,50.0,45.0,26.88,NE,45,1.0,7.0,82,0.00,,,0.04,Rainwise IP-100,2013-09-23 04:02:00,
2013-09-22 22:07:00,50.0,45.0,26.88,ENE,67,2.0,7.0,82,0.00,,,0.04,Rainwise IP-100,2013-09-23 04:07:00,
2013-09-22 22:10:00,50.0,45.0,26.88,ENE,67,3.0,6.0,83,0.00,,,0.04,Rainwise IP-100,2013-09-23 04:10:00,
2013-09-22 22:15:00,50.0,45.0,26.88,ENE,67,2.0,6.0,83,0.06,,,0.05,Rainwise IP-100,2013-09-23 04:15:00,
2013-09-22 22:20:00,50.0,46.0,26.88,ENE,67,5.0,5.0,85,0.06,,,0.05,Rainwise IP-100,2013-09-23 04:20:00,
2013-09-22 22:25:00,50.0,45.0,26.88,ESE,112,3.0,6.0,84,0.00,,,0.05,Rainwise IP-100,2013-09-23 04:25:00,
2013-09-22 22:30:00,50.0,46.0,26.88,NE,45,2.0,7.0,85,0.00,,,0.05,Rainwise IP-100,2013-09-23 04:30:00,
2013-09-22 22:35:00,50.0,45.0,26.87,ENE,67,5.0,7.0,83,0.00,,,0.05,Rainwise IP-100,2013-09-23 04:35:00,
2013-09-22 22:40:00,50.0,45.0,26.87,ENE,67,5.0,9.0,84,0.00,,,0.05,Rainwise IP-100,2013-09-23 04:40:00,
2013-09-22 22:45:00,50.0,45.0,26.87,East,90,2.0,7.0,84,0.00,,,0.05,Rainwise IP-100,2013-09-23 04:45:00,
2013-09-22 22:50:00,50.0,46.0,26.87,ESE,112,2.0,5.0,85,0.00,,,0.05,Rainwise IP-100,2013-09-23 04:50:00,
2013-09-22 22:55:00,50.0,46.0,26.87,East,90,0.0,5.0,85,0.00,,,0.05,Rainwise IP-100,2013-09-23 04:55:00,
2013-09-22 23:00:00,50.0,46.0,26.87,East,90,2.0,3.0,86,0.00,,,0.05,Rainwise IP-100,2013-09-23 05:00:00,
2013-09-22 23:05:00,50.0,46.0,26.87,ENE,67,4.0,5.0,85,0.00,,,0.05,Rainwise IP-100,2013-09-23 05:05:00,
2013-09-22 23:10:00,50.0,46.0,26.87,East,90,1.0,4.0,87,0.00,,,0.05,Rainwise IP-100,2013-09-23 05:10:00,
2013-09-22 23:15:00,50.0,46.0,26.88,East,90,1.0,7.0,86,0.00,,,0.05,Rainwise IP-100,2013-09-23 05:15:00,
2013-09-22 23:20:00,50.0,46.0,26.88,East,90,2.0,6.0,87,0.00,,,0.05,Rainwise IP-100,2013-09-23 05:20:00,
2013-09-22 23:25:00,50.0,46.0,26.87,ENE,67,7.0,9.0,87,0.00,,,0.05,Rainwise IP-100,2013-09-23 05:25:00,
2013-09-22 23:30:00,50.0,47.0,26.87,SSE,157,3.0,9.0,88,0.00,,,0.05,Rainwise IP-100,2013-09-23 05:30:00,
2013-09-22 23:35:00,50.0,46.0,26.87,SSE,157,0.0,3.0,87,0.00,,,0.05,Rainwise IP-100,2013-09-23 05:35:00,
2013-09-22 23:40:00,50.0,46.0,26.87,ENE,67,1.0,4.0,87,0.00,,,0.05,Rainwise IP-100,2013-09-23 05:40:00,
2013-09-22 23:45:00,50.0,46.0,26.88,NE,45,3.0,6.0,85,0.00,,,0.05,Rainwise IP-100,2013-09-23 05:45:00,
2013-09-22 23:50:00,50.0,46.0,26.88,NE,45,3.0,5.0,86,0.00,,,0.05,Rainwise IP-100,2013-09-23 05:50:00,
2013-09-22 23:55:00,50.0,46.0,26.88,ENE,67,2.0,5.0,85,0.00,,,0.05,Rainwise IP-100,2013-09-23 05:55:00,